This demonstration page uses our WeatherBlox Daily Observations layout. Learn more.

Left ArrowRight Arrow

31.31129, -92.44514

Hourly Observations for August 9, 2018

Temp ( °F °C ) Dew Point ( °F °C ) Humidity (%) Winds ( mph kmh ) Pressure ( in mb ) Visibility ( mi km ) Precip ( " mm )
12:53 am 00:53 Clear 75 23.9 73 22.8 94 94 ESE 6 9 30.01 1016 10 16 0.00 0.00
1:53 am 01:53 Clear 74 23.3 72 22.2 94 94 SE 3 6 30.01 1016 10 16 0.00 0.00
2:53 am 02:53 Clear 73 22.8 72 22.2 96 96 Calm 30.00 1016 9 14 0.00 0.00
3:53 am 03:53 Clear 73 22.8 72 22.2 96 96 Calm 30.00 1016 9 14 0.00 0.00
4:53 am 04:53 Clear 74 23.3 72 22.2 94 94 Calm 30.01 1016 10 16 0.00 0.00
5:53 am 05:53 Clear 72 22.2 71 21.7 97 97 Calm 30.01 1016 9 14 0.00 0.00
6:53 am 06:53 Sunny 72 22.2 71 21.7 97 97 Calm 30.02 1017 9 14 0.00 0.00
7:53 am 07:53 Sunny 76 24.4 73 22.8 91 91 Calm 30.04 1017 9 14 0.00 0.00
8:53 am 08:53 Mostly Sunny 80 26.7 74 23.3 82 82 Calm 30.06 1018 10 16 0.00 0.00
9:53 am 09:53 Partly Cloudy 86 30 75 23.9 70 70 W 5 7 30.07 1018 10 16 0.00 0.00
10:53 am 10:53 Mostly Sunny 88 31.1 75 23.9 66 66 WNW 7 11 30.07 1018 10 16 0.00 0.00
11:12 am 11:12 Sunny with Nearby Thunderstorms 88 31.1 74 23.3 63 63 Calm 30.06 1018 10 16 0.00 0.00
11:53 am 11:53 Partly Cloudy with Nearby Thunderstorms 87 30.6 73 22.8 63 63 VRB 3 6 30.06 1018 10 16 0.00 0.00
12:22 pm 12:22 Mostly Sunny 81 27.2 73 22.8 77 77 S 7 11 30.06 1018 10 16 0.00 0.00
12:53 pm 12:53 Sunny 82 27.8 73 22.8 74 74 SSE 7 11 30.04 1017 10 16 0.00 0.00
1:53 pm 13:53 Sunny 90 32.2 72 22.2 56 56 NNW 7 11 30.01 1016 10 16 0.00 0.00
2:16 pm 14:16 Mostly Cloudy with Thunderstorms 84 28.9 77 25 80 80 SSW 7 11 30.00 1016 7 11 0.00 0.03
2:53 pm 14:53 Partly Cloudy with Nearby Thunderstorms 81 27.2 75 23.9 82 82 SSE 9 15 30.01 1016 10 16 0.00 0.03
3:15 pm 15:15 Mostly Sunny 80 26.7 74 23.3 82 82 SSE 6 9 30.00 1016 10 16 0.00 0.03
3:53 pm 15:53 Sunny 84 28.9 74 23.3 72 72 SSE 8 13 29.99 1016 10 16 0.00 0.03
4:53 pm 16:53 Sunny 86 30 74 23.3 67 67 S 6 9 29.98 1015 10 16 0.00 0.00
5:53 pm 17:53 Sunny 83 28.3 75 23.9 77 77 SSW 7 11 29.99 1016 10 16 0.00 0.00
6:53 pm 18:53 Partly Cloudy with Light Rain 79 26.1 72 22.2 79 79 S 3 6 29.99 1016 10 16 0.00 0.03
7:53 pm 19:53 Sunny 77 25 73 22.8 88 88 S 6 9 29.99 1016 10 16 0.00 0.03
8:53 pm 20:53 Clear 76 24.4 72 22.2 88 88 SE 3 6 29.99 1016 10 16 0.00 0.00
9:53 pm 21:53 Clear 75 23.9 72 22.2 90 90 SSE 3 6 30.01 1016 10 16 0.00 0.00
10:53 pm 22:53 Clear 74 23.3 72 22.2 94 94 SE 3 6 30.02 1017 10 16 0.00 0.03
11:53 pm 23:53 Clear 74 23.3 72 22.2 94 94 SE 3 6 30.03 1017 9 14 0.00 0.03

Powered by AerisWeather